楊-高彗星

325P/Yang-Gao (2009)

English version
Home page
Updated on February 8, 2021

---------------------------------------------------------------------

・ プロフィール

符号 325P/2009 L2
発見日 2009年6月15日
発見光度 14.2等
発見者 楊睿(浙江省杭州市)、高興(新彊ウイグル自治区ウルムチ) 南山、星明天文台

・ 写真集

・ 軌道要素

Epoch 2009 May 9.0 TT = JDT 2454960.5
T 2009 May 21.74634 TT                                  MPCW
q   1.2961075            (2000.0)            P               Q
n   0.15588855     Peri.  346.94644     -0.39394977     +0.87750720
a   3.4192163      Node   259.30537     -0.81630939     -0.47077528
e   0.6209343      Incl.   16.15889     -0.42242462     +0.09138795
P   6.32
From 1054 observations 2009 June 15-2015 June 10, mean residual 0".5.

・ 星図

・ 光度変化

        m1 = 13.5 + 5 logΔ + 15.0 log r

---------------------------------------------------------------------

軌道要素はM.P.E.C. 2015-L28に掲載されたものです。
星図はステラナビゲータ Ver.8 (アストロアーツ) で作成したものです。
光度グラフはComet for Windowsで作成したものです。

---------------------------------------------------------------------

Copyright(C) Seiichi Yoshida (comet@aerith.net). All rights reserved.